Weather History for Morganton, NC

Change the Weather History Date:

Wednesday, January 1, 2014

  Actual Average (KHKY) Record (KHKY)
Temperature  
Mean Temperature 36 °F -  
Max Temperature 49 °F 51 °F 73 °F (1985)
Min Temperature 23 °F 33 °F 13 °F (1977)
Degree Days  
Heating Degree Days 30    
Moisture  
Dew Point 25 °F    
Average Humidity 78    
Maximum Humidity 98    
Minimum Humidity 37    
Precipitation  
Precipitation 0.00 in - - ()
Sea Level Pressure  
Sea Level Pressure 30.32 in    
Wind  
Wind Speed 1 mph (SW)    
Max Wind Speed 8 mph    
Max Gust Speed -    
Visibility 10 miles    
Events      
Averages and records for this station are not official NWS values.
T = Trace of Precipitation, MM = Missing Value Source: NWS Daily Summary

Daily Weather History Graph

Daily Weather History Graph

Search for Another Location

Airport:

Trip Planner

Search our weather history database for the weather conditions in past years. The results will help you decide how hot, cold, wet, or windy it might be!

Date:

Astronomy

Jan. 01, 2014 Rise Set
Actual Time 7:36 AM EST 5:23 PM EST
Civil Twilight 7:08 AM EST 5:52 PM EST
Nautical Twilight 6:36 AM EST 6:24 PM EST
Astronomical Twilight 6:05 AM EST 6:55 PM EST
Moon 7:27 AM EST (1/1) 6:04 PM EST (1/1)
Length of Visible Light 10h 43m
Length of Day
9h 47m
New Moon, 0% of the Moon is Illuminated
Jan 1
New Moon
Jan 7
First Quarter
Jan 15
Full
Jan 24
Last Quarter
Jan 30
New

Hourly Weather History & Observations

Time (EST) Temp. Windchill Dew Point Humidity Pressure Visibility Wind Dir Wind Speed Gust Speed Precip Events Conditions
12:15 AM 26.1 °F - 22.5 °F 86% 30.39 in 10.0 mi Calm Calm - N/A   Clear
12:35 AM 25.7 °F - 22.6 °F 88% 30.39 in 10.0 mi Calm Calm - N/A   Clear
12:55 AM 25.7 °F - 23.9 °F 93% 30.39 in 10.0 mi Calm Calm - N/A   Clear
1:15 AM 25.3 °F - 23.4 °F 92% 30.39 in 10.0 mi Calm Calm - N/A   Clear
1:35 AM 25.3 °F - 23.9 °F 94% 30.39 in 10.0 mi Calm Calm - N/A   Clear
1:55 AM 24.8 °F - 23.4 °F 94% 30.38 in 10.0 mi Calm Calm - N/A   Clear
2:15 AM 25.3 °F - 23.7 °F 94% 30.40 in 10.0 mi Calm Calm - N/A   Clear
2:35 AM 25.3 °F 21.1 °F 23.5 °F 93% 30.39 in 10.0 mi NW 3.5 mph - N/A   Clear
2:55 AM 28.2 °F 24.4 °F 23.5 °F 83% 30.39 in 10.0 mi North 3.5 mph - N/A   Clear
3:15 AM 27.0 °F - 24.3 °F 90% 30.39 in 10.0 mi Calm Calm - N/A   Clear
3:35 AM 27.1 °F - 24.8 °F 91% 30.39 in 10.0 mi Calm Calm - N/A   Clear
3:55 AM 26.8 °F 22.8 °F 24.8 °F 92% 30.39 in 10.0 mi SW 3.5 mph - N/A   Clear
4:15 AM 26.2 °F - 23.7 °F 90% 30.38 in 10.0 mi Calm Calm - N/A   Clear
4:35 AM 25.5 °F 21.3 °F 24.1 °F 94% 30.38 in 10.0 mi NNW 3.5 mph - N/A   Clear
4:55 AM 26.1 °F - 23.2 °F 89% 30.38 in 10.0 mi Calm Calm - N/A   Clear
5:15 AM 26.4 °F - 24.1 °F 91% 30.37 in 10.0 mi Calm Calm - N/A   Clear
5:35 AM 24.8 °F - 23.0 °F 93% 30.37 in 10.0 mi Calm Calm - N/A   Clear
5:55 AM 24.6 °F - 23.4 °F 95% 30.38 in 10.0 mi Calm Calm - N/A   Clear
6:15 AM 24.6 °F - 23.7 °F 96% 30.38 in 10.0 mi Calm Calm - N/A   Clear
6:35 AM 23.9 °F - 23.0 °F 96% 30.39 in 10.0 mi Calm Calm - N/A   Clear
6:55 AM 23.4 °F - 22.6 °F 97% 30.38 in 10.0 mi Calm Calm - N/A   Clear
7:15 AM 23.5 °F - 22.8 °F 97% 30.38 in 10.0 mi Calm Calm - N/A   Clear
7:35 AM 24.1 °F - 23.4 °F 97% 30.38 in 10.0 mi Calm Calm - N/A   Clear
7:55 AM 23.7 °F - 23.0 °F 97% 30.39 in 10.0 mi Calm Calm - N/A   Clear
8:15 AM 24.8 °F - 23.9 °F 96% 30.39 in 10.0 mi Calm Calm - N/A   Clear
8:35 AM 25.9 °F - 25.3 °F 98% 30.39 in 10.0 mi Calm Calm - N/A   Clear
8:55 AM 28.2 °F - 26.8 °F 94% 30.40 in 10.0 mi Calm Calm - N/A   Clear
9:15 AM 29.3 °F - 26.1 °F 88% 30.41 in 10.0 mi Calm Calm - N/A   Clear
9:35 AM 30.9 °F - 27.3 °F 86% 30.41 in 10.0 mi Calm Calm - N/A   Clear
9:55 AM 32.2 °F - 27.5 °F 83% 30.41 in 10.0 mi Calm Calm - N/A   Clear
10:15 AM 34.0 °F - 28.6 °F 81% 30.41 in 10.0 mi Calm Calm - N/A   Clear
10:35 AM 35.1 °F - 25.0 °F 67% 30.41 in 10.0 mi Calm Calm - N/A   Clear
10:55 AM 36.5 °F - 25.0 °F 63% 30.40 in 10.0 mi Calm Calm - N/A   Clear
11:15 AM 38.5 °F - 25.0 °F 58% 30.39 in 10.0 mi Calm Calm - N/A   Clear
11:35 AM 41.2 °F - 25.2 °F 53% 30.38 in 10.0 mi Calm Calm - N/A   Clear
11:55 AM 42.8 °F - 20.7 °F 41% 30.36 in 10.0 mi Calm Calm - N/A   Clear
12:15 PM 44.1 °F - 19.9 °F 38% 30.35 in 10.0 mi Calm Calm - N/A   Clear
12:35 PM 45.3 °F - 20.5 °F 37% 30.34 in 10.0 mi Calm Calm - N/A   Clear
12:55 PM 45.9 °F - 21.7 °F 38% 30.32 in 10.0 mi Calm Calm - N/A   Clear
1:15 PM 46.9 °F - 22.5 °F 38% 30.31 in 10.0 mi WNW 3.5 mph - N/A   Clear
1:35 PM 47.3 °F - 22.1 °F 37% 30.30 in 10.0 mi Calm Calm - N/A   Clear
1:55 PM 47.5 °F - 24.4 °F 41% 30.29 in 10.0 mi South 4.6 mph - N/A   Clear
2:15 PM 47.5 °F - 24.8 °F 41% 30.29 in 10.0 mi SSW 4.6 mph - N/A   Clear
2:35 PM 48.4 °F - 25.2 °F 40% 30.28 in 10.0 mi South 3.5 mph - N/A   Clear
2:55 PM 48.9 °F - 25.5 °F 40% 30.27 in 10.0 mi SSE 4.6 mph - N/A   Clear
3:15 PM 48.6 °F - 25.3 °F 40% 30.27 in 10.0 mi SW 8.1 mph - N/A   Clear
3:35 PM 48.2 °F - 25.5 °F 41% 30.26 in 10.0 mi SSW 6.9 mph - N/A   Clear
3:55 PM 47.5 °F - 25.2 °F 42% 30.26 in 10.0 mi SW 5.8 mph - N/A   Clear
4:15 PM 46.8 °F - 25.5 °F 43% 30.26 in 10.0 mi SW 5.8 mph - N/A   Clear
4:35 PM 46.4 °F 45.2 °F 26.4 °F 46% 30.26 in 10.0 mi SSW 3.5 mph - N/A   Clear
4:55 PM 44.6 °F - 26.8 °F 50% 30.26 in 10.0 mi Calm Calm - N/A   Clear
5:15 PM 39.6 °F - 29.8 °F 68% 30.26 in 10.0 mi Calm Calm - N/A   Clear
5:35 PM 36.1 °F - 30.4 °F 80% 30.25 in 10.0 mi Calm Calm - N/A   Clear
5:55 PM 34.0 °F - 28.4 °F 80% 30.25 in 10.0 mi Calm Calm - N/A   Clear
6:15 PM 32.4 °F - 27.9 °F 83% 30.25 in 10.0 mi Calm Calm - N/A   Clear
6:35 PM 32.4 °F - 28.0 °F 84% 30.26 in 10.0 mi Calm Calm - N/A   Clear
6:55 PM 31.8 °F - 27.5 °F 84% 30.26 in 10.0 mi Calm Calm - N/A   Clear
7:15 PM 31.3 °F - 27.9 °F 87% 30.25 in 10.0 mi Calm Calm - N/A   Clear
7:35 PM 31.3 °F - 28.4 °F 89% 30.24 in 10.0 mi Calm Calm - N/A   Clear
7:55 PM 31.1 °F - 28.2 °F 89% 30.24 in 10.0 mi Calm Calm - N/A   Clear
8:15 PM 31.1 °F - 28.4 °F 90% 30.24 in 10.0 mi Calm Calm - N/A   Clear
8:35 PM 30.4 °F - 28.2 °F 92% 30.23 in 10.0 mi Calm Calm - N/A   Clear
8:55 PM 32.2 °F - 29.7 °F 90% 30.22 in 10.0 mi Calm Calm - N/A   Clear
9:15 PM 31.1 °F - 28.2 °F 89% 30.22 in 10.0 mi Calm Calm - N/A   Clear
9:35 PM 30.4 °F - 28.0 °F 91% 30.21 in 10.0 mi Calm Calm - N/A   Clear
9:55 PM 30.0 °F - 28.2 °F 93% 30.20 in 10.0 mi Calm Calm - N/A   Clear
10:15 PM 30.4 °F - 27.7 °F 90% 30.20 in 10.0 mi Calm Calm - N/A   Clear
10:35 PM 29.7 °F - 28.2 °F 94% 30.20 in 10.0 mi Calm Calm - N/A   Clear
10:55 PM 29.8 °F - 28.4 °F 94% 30.20 in 10.0 mi Calm Calm - N/A   Clear
11:15 PM 30.4 °F - 28.9 °F 94% 30.19 in 10.0 mi Calm Calm - N/A   Clear
11:35 PM 30.9 °F - 28.9 °F 92% 30.18 in 10.0 mi Calm Calm - N/A   Clear
11:55 PM 30.9 °F - 28.8 °F 92% 30.17 in 10.0 mi Calm Calm - N/A   Clear